Time,TemperatureF,DewpointF,PressureIn,WindDirection,WindDirectionDegrees,WindSpeedMPH,WindSpeedGustMPH,Humidity,HourlyPrecipIn,Conditions,Clouds,dailyrainin,SoftwareType,DateUTC
2013-09-10 00:04:00,73.7,69.6,30.11,SW,218,0.0,2.0,87,0.00,,,0.00,WUHU216DAVISVP2,2013-09-10 04:04:00,
2013-09-10 00:09:00,73.7,69.6,30.11,SW,218,0.0,2.0,87,0.00,,,0.00,WUHU216DAVISVP2,2013-09-10 04:09:00,
2013-09-10 00:14:00,73.6,69.8,30.11,SW,231,0.0,2.0,88,0.00,,,0.00,WUHU216DAVISVP2,2013-09-10 04:14:00,
2013-09-10 00:19:00,73.5,69.7,30.11,SW,231,0.0,2.0,88,0.00,,,0.00,WUHU216DAVISVP2,2013-09-10 04:19:00,
2013-09-10 00:24:00,73.5,69.7,30.11,SW,230,0.0,2.0,88,0.00,,,0.00,WUHU216DAVISVP2,2013-09-10 04:24:00,
2013-09-10 00:29:00,73.5,69.7,30.11,SSW,201,0.0,2.0,88,0.00,,,0.00,WUHU216DAVISVP2,2013-09-10 04:29:00,
2013-09-10 00:34:00,73.5,69.7,30.11,SSW,201,1.0,2.0,88,0.00,,,0.00,WUHU216DAVISVP2,2013-09-10 04:34:00,
2013-09-10 00:39:00,73.5,69.7,30.11,SSW,201,0.0,2.0,88,0.00,,,0.00,WUHU216DAVISVP2,2013-09-10 04:39:00,
2013-09-10 00:44:00,73.5,69.7,30.11,SSW,201,0.0,2.0,88,0.00,,,0.00,WUHU216DAVISVP2,2013-09-10 04:44:00,
2013-09-10 00:49:00,73.5,69.7,30.11,SSW,201,0.0,2.0,88,0.00,,,0.00,WUHU216DAVISVP2,2013-09-10 04:49:00,
2013-09-10 00:54:00,73.4,70.0,30.11,SSW,201,0.0,1.0,89,0.00,,,0.00,WUHU216DAVISVP2,2013-09-10 04:54:00,
2013-09-10 00:59:00,73.4,70.0,30.11,SSW,201,1.0,2.0,89,0.00,,,0.00,WUHU216DAVISVP2,2013-09-10 04:59:00,
2013-09-10 01:04:00,73.4,70.0,30.10,SSW,201,0.0,2.0,89,0.00,,,0.00,WUHU216DAVISVP2,2013-09-10 05:04:00,
2013-09-10 01:09:00,73.3,69.9,30.11,SSW,201,0.0,2.0,89,0.00,,,0.00,WUHU216DAVISVP2,2013-09-10 05:09:00,
2013-09-10 01:14:00,73.3,69.9,30.10,South,181,0.0,2.0,89,0.00,,,0.00,WUHU216DAVISVP2,2013-09-10 05:14:00,
2013-09-10 01:19:00,73.2,69.8,30.10,South,181,0.0,1.0,89,0.00,,,0.00,WUHU216DAVISVP2,2013-09-10 05:19:00,
2013-09-10 01:24:00,73.1,69.7,30.10,South,181,0.0,2.0,89,0.00,,,0.00,WUHU216DAVISVP2,2013-09-10 05:24:00,
2013-09-10 01:29:00,73.0,69.6,30.10,South,181,0.0,2.0,89,0.00,,,0.00,WUHU216DAVISVP2,2013-09-10 05:29:00,
2013-09-10 01:34:00,72.9,69.8,30.10,South,181,2.0,2.0,90,0.00,,,0.00,WUHU216DAVISVP2,2013-09-10 05:34:00,
2013-09-10 01:39:00,72.9,69.8,30.10,SSE,149,1.0,2.0,90,0.00,,,0.00,WUHU216DAVISVP2,2013-09-10 05:39:00,
2013-09-10 01:44:00,72.9,69.8,30.10,SSE,156,1.0,2.0,90,0.00,,,0.00,WUHU216DAVISVP2,2013-09-10 05:44:00,
2013-09-10 01:49:00,72.8,69.7,30.10,SSE,156,2.0,3.0,90,0.00,,,0.00,WUHU216DAVISVP2,2013-09-10 05:49:00,
2013-09-10 01:54:00,72.8,69.7,30.10,SSE,156,0.0,3.0,90,0.00,,,0.00,WUHU216DAVISVP2,2013-09-10 05:54:00,
2013-09-10 01:59:00,72.7,69.9,30.10,SSE,156,2.0,3.0,91,0.00,,,0.00,WUHU216DAVISVP2,2013-09-10 05:59:00,
2013-09-10 02:04:00,72.6,69.8,30.10,SSE,156,1.0,3.0,91,0.00,,,0.00,WUHU216DAVISVP2,2013-09-10 06:04:00,
2013-09-10 02:09:00,72.6,69.8,30.10,SSE,156,0.0,3.0,91,0.00,,,0.00,WUHU216DAVISVP2,2013-09-10 06:09:00,
2013-09-10 02:14:00,72.6,69.8,30.11,SSE,164,0.0,3.0,91,0.00,,,0.00,WUHU216DAVISVP2,2013-09-10 06:14:00,
2013-09-10 02:19:00,72.6,69.8,30.11,SSE,164,0.0,2.0,91,0.00,,,0.00,WUHU216DAVISVP2,2013-09-10 06:19:00,
2013-09-10 02:24:00,72.6,69.8,30.10,SSE,164,0.0,2.0,91,0.00,,,0.00,WUHU216DAVISVP2,2013-09-10 06:24:00,
2013-09-10 02:29:00,72.5,69.7,30.11,WSW,237,0.0,3.0,91,0.00,,,0.00,WUHU216DAVISVP2,2013-09-10 06:29:00,
2013-09-10 02:34:00,72.5,69.7,30.11,WSW,237,0.0,3.0,91,0.00,,,0.00,WUHU216DAVISVP2,2013-09-10 06:34:00,
2013-09-10 02:39:00,72.5,69.7,30.10,SSW,208,2.0,3.0,91,0.00,,,0.00,WUHU216DAVISVP2,2013-09-10 06:39:00,
2013-09-10 02:44:00,72.5,69.7,30.10,South,189,1.0,3.0,91,0.00,,,0.00,WUHU216DAVISVP2,2013-09-10 06:44:00,
2013-09-10 02:49:00,72.5,69.7,30.10,SW,216,0.0,3.0,91,0.00,,,0.00,WUHU216DAVISVP2,2013-09-10 06:49:00,
2013-09-10 02:54:00,72.5,69.7,30.10,WSW,241,1.0,3.0,91,0.00,,,0.00,WUHU216DAVISVP2,2013-09-10 06:54:00,
2013-09-10 02:59:00,72.4,69.6,30.10,WSW,241,0.0,3.0,91,0.00,,,0.00,WUHU216DAVISVP2,2013-09-10 06:59:00,
2013-09-10 03:04:00,72.4,69.6,30.10,WSW,255,1.0,2.0,91,0.00,,,0.00,WUHU216DAVISVP2,2013-09-10 07:04:00,
2013-09-10 03:09:00,72.4,69.6,30.10,WSW,244,0.0,2.0,91,0.00,,,0.00,WUHU216DAVISVP2,2013-09-10 07:09:00,
2013-09-10 03:14:00,72.4,69.6,30.10,WSW,244,0.0,2.0,91,0.00,,,0.00,WUHU216DAVISVP2,2013-09-10 07:14:00,
2013-09-10 03:19:00,72.4,69.6,30.10,SSW,197,1.0,2.0,91,0.00,,,0.00,WUHU216DAVISVP2,2013-09-10 07:19:00,
2013-09-10 03:24:00,72.4,69.6,30.09,SSW,197,1.0,2.0,91,0.00,,,0.00,WUHU216DAVISVP2,2013-09-10 07:24:00,
2013-09-10 03:29:00,72.4,69.6,30.09,South,191,0.0,3.0,91,0.00,,,0.00,WUHU216DAVISVP2,2013-09-10 07:29:00,
2013-09-10 03:34:00,72.4,69.6,30.10,SW,217,0.0,3.0,91,0.00,,,0.00,WUHU216DAVISVP2,2013-09-10 07:34:00,
2013-09-10 03:39:00,72.4,69.6,30.09,SSW,193,2.0,3.0,91,0.00,,,0.00,WUHU216DAVISVP2,2013-09-10 07:39:00,
2013-09-10 03:44:00,72.4,69.6,30.09,SSW,193,0.0,3.0,91,0.00,,,0.00,WUHU216DAVISVP2,2013-09-10 07:44:00,
2013-09-10 03:49:00,72.4,69.6,30.09,South,182,2.0,3.0,91,0.00,,,0.00,WUHU216DAVISVP2,2013-09-10 07:49:00,
2013-09-10 03:54:00,72.4,69.6,30.09,South,182,0.0,3.0,91,0.00,,,0.00,WUHU216DAVISVP2,2013-09-10 07:54:00,
2013-09-10 03:59:00,72.4,69.6,30.09,South,182,0.0,3.0,91,0.00,,,0.00,WUHU216DAVISVP2,2013-09-10 07:59:00,
2013-09-10 04:04:00,72.4,69.6,30.09,South,181,1.0,3.0,91,0.00,,,0.00,WUHU216DAVISVP2,2013-09-10 08:04:00,
2013-09-10 04:09:00,72.3,69.5,30.09,South,181,0.0,3.0,91,0.00,,,0.00,WUHU216DAVISVP2,2013-09-10 08:09:00,
2013-09-10 04:14:00,72.3,69.5,30.09,South,182,0.0,3.0,91,0.00,,,0.00,WUHU216DAVISVP2,2013-09-10 08:14:00,
2013-09-10 04:19:00,72.3,69.5,30.09,South,182,0.0,2.0,91,0.00,,,0.00,WUHU216DAVISVP2,2013-09-10 08:19:00,
2013-09-10 04:24:00,72.2,69.4,30.09,South,181,0.0,2.0,91,0.00,,,0.00,WUHU216DAVISVP2,2013-09-10 08:24:00,
2013-09-10 04:29:00,72.1,69.6,30.09,South,181,0.0,2.0,92,0.00,,,0.00,WUHU216DAVISVP2,2013-09-10 08:29:00,
2013-09-10 04:34:00,72.0,69.5,30.09,South,182,0.0,2.0,92,0.00,,,0.00,WUHU216DAVISVP2,2013-09-10 08:34:00,
2013-09-10 04:39:00,71.9,69.4,30.09,South,182,0.0,2.0,92,0.00,,,0.00,WUHU216DAVISVP2,2013-09-10 08:39:00,
2013-09-10 04:44:00,71.8,69.3,30.09,South,182,2.0,2.0,92,0.00,,,0.00,WUHU216DAVISVP2,2013-09-10 08:44:00,
2013-09-10 04:49:00,71.7,69.2,30.09,South,182,0.0,2.0,92,0.00,,,0.00,WUHU216DAVISVP2,2013-09-10 08:49:00,
2013-09-10 04:54:00,71.7,69.2,30.09,South,182,0.0,2.0,92,0.00,,,0.00,WUHU216DAVISVP2,2013-09-10 08:54:00,
2013-09-10 04:59:00,71.6,69.5,30.09,South,182,0.0,2.0,93,0.00,,,0.00,WUHU216DAVISVP2,2013-09-10 08:59:00,
2013-09-10 05:04:00,71.5,69.3,30.10,South,182,0.0,2.0,93,0.00,,,0.00,WUHU216DAVISVP2,2013-09-10 09:04:00,
2013-09-10 05:09:00,71.4,69.3,30.10,South,181,0.0,1.0,93,0.00,,,0.00,WUHU216DAVISVP2,2013-09-10 09:09:00,
2013-09-10 05:15:00,71.3,69.2,30.10,South,182,0.0,1.0,93,0.00,,,0.00,WUHU216DAVISVP2,2013-09-10 09:15:00,
2013-09-10 05:20:00,71.2,69.1,30.10,South,182,0.0,1.0,93,0.00,,,0.00,WUHU216DAVISVP2,2013-09-10 09:20:00,
2013-09-10 05:25:00,71.1,69.0,30.10,South,181,0.0,1.0,93,0.00,,,0.00,WUHU216DAVISVP2,2013-09-10 09:25:00,
2013-09-10 05:30:00,71.0,68.9,30.10,South,181,0.0,0.0,93,0.00,,,0.00,WUHU216DAVISVP2,2013-09-10 09:30:00,
2013-09-10 05:35:00,70.9,68.7,30.10,South,181,0.0,0.0,93,0.00,,,0.00,WUHU216DAVISVP2,2013-09-10 09:35:00,
2013-09-10 05:40:00,70.8,69.0,30.10,South,181,0.0,0.0,94,0.00,,,0.00,WUHU216DAVISVP2,2013-09-10 09:40:00,
2013-09-10 05:45:00,70.7,68.9,30.10,South,182,0.0,0.0,94,0.00,,,0.00,WUHU216DAVISVP2,2013-09-10 09:45:00,
2013-09-10 05:50:00,70.7,68.9,30.10,South,182,0.0,0.0,94,0.00,,,0.00,WUHU216DAVISVP2,2013-09-10 09:50:00,
2013-09-10 05:55:00,70.6,68.8,30.10,South,181,0.0,0.0,94,0.00,,,0.00,WUHU216DAVISVP2,2013-09-10 09:55:00,
2013-09-10 06:00:00,70.6,68.8,30.10,South,182,0.0,0.0,94,0.00,,,0.00,WUHU216DAVISVP2,2013-09-10 10:00:00,
2013-09-10 06:05:00,70.5,68.7,30.10,South,182,0.0,0.0,94,0.00,,,0.00,WUHU216DAVISVP2,2013-09-10 10:05:00,
2013-09-10 06:10:00,70.5,68.7,30.11,South,182,0.0,0.0,94,0.00,,,0.00,WUHU216DAVISVP2,2013-09-10 10:10:00,
2013-09-10 06:15:00,70.4,68.9,30.11,South,182,0.0,0.0,95,0.00,,,0.00,WUHU216DAVISVP2,2013-09-10 10:15:00,
2013-09-10 06:20:00,70.4,68.9,30.11,South,182,0.0,0.0,95,0.00,,,0.00,WUHU216DAVISVP2,2013-09-10 10:20:00,
2013-09-10 06:25:00,70.3,68.8,30.11,South,181,0.0,0.0,95,0.00,,,0.00,WUHU216DAVISVP2,2013-09-10 10:25:00,
2013-09-10 06:30:00,70.2,68.7,30.12,South,182,0.0,0.0,95,0.00,,,0.00,WUHU216DAVISVP2,2013-09-10 10:30:00,
2013-09-10 06:35:00,70.2,68.7,30.11,South,182,0.0,0.0,95,0.00,,,0.00,WUHU216DAVISVP2,2013-09-10 10:35:00,
2013-09-10 06:40:00,70.1,68.6,30.11,South,181,0.0,0.0,95,0.00,,,0.00,WUHU216DAVISVP2,2013-09-10 10:40:00,
2013-09-10 06:45:00,70.1,68.6,30.12,South,182,0.0,0.0,95,0.00,,,0.00,WUHU216DAVISVP2,2013-09-10 10:45:00,
2013-09-10 06:50:00,70.1,68.6,30.12,South,182,0.0,0.0,95,0.00,,,0.00,WUHU216DAVISVP2,2013-09-10 10:50:00,
2013-09-10 06:55:00,69.9,68.4,30.12,South,182,0.0,0.0,95,0.00,,,0.00,WUHU216DAVISVP2,2013-09-10 10:55:00,
2013-09-10 07:00:00,70.0,68.5,30.12,South,182,0.0,0.0,95,0.00,,,0.00,WUHU216DAVISVP2,2013-09-10 11:00:00,
2013-09-10 07:05:00,70.0,68.5,30.12,South,182,0.0,0.0,95,0.00,,,0.00,WUHU216DAVISVP2,2013-09-10 11:05:00,
2013-09-10 07:10:00,70.0,68.5,30.13,South,182,0.0,0.0,95,0.00,,,0.00,WUHU216DAVISVP2,2013-09-10 11:10:00,
2013-09-10 07:15:00,70.0,68.8,30.13,South,181,0.0,0.0,96,0.00,,,0.00,WUHU216DAVISVP2,2013-09-10 11:15:00,
2013-09-10 07:20:00,70.0,68.8,30.13,South,181,0.0,0.0,96,0.00,,,0.00,WUHU216DAVISVP2,2013-09-10 11:20:00,
2013-09-10 07:25:00,70.1,68.9,30.13,South,181,0.0,0.0,96,0.00,,,0.00,WUHU216DAVISVP2,2013-09-10 11:25:00,
2013-09-10 07:30:00,70.2,69.0,30.13,South,181,0.0,1.0,96,0.00,,,0.00,WUHU216DAVISVP2,2013-09-10 11:30:00,
2013-09-10 07:35:00,70.4,69.2,30.13,South,181,0.0,1.0,96,0.00,,,0.00,WUHU216DAVISVP2,2013-09-10 11:35:00,
2013-09-10 07:40:00,70.6,69.4,30.13,South,181,0.0,1.0,96,0.00,,,0.00,WUHU216DAVISVP2,2013-09-10 11:40:00,
2013-09-10 07:45:00,70.7,69.5,30.13,South,181,0.0,1.0,96,0.00,,,0.00,WUHU216DAVISVP2,2013-09-10 11:45:00,
2013-09-10 07:50:00,70.9,69.7,30.13,South,181,0.0,1.0,96,0.00,,,0.00,WUHU216DAVISVP2,2013-09-10 11:50:00,
2013-09-10 07:55:00,71.1,69.6,30.13,South,181,0.0,1.0,95,0.00,,,0.00,WUHU216DAVISVP2,2013-09-10 11:55:00,
2013-09-10 08:00:00,71.3,69.8,30.12,South,180,0.0,1.0,95,0.00,,,0.00,WUHU216DAVISVP2,2013-09-10 12:00:00,
2013-09-10 08:05:00,71.5,70.0,30.12,South,180,0.0,1.0,95,0.00,,,0.00,WUHU216DAVISVP2,2013-09-10 12:05:00,
2013-09-10 08:10:00,71.7,70.2,30.12,South,180,0.0,1.0,95,0.00,,,0.00,WUHU216DAVISVP2,2013-09-10 12:10:00,
2013-09-10 08:15:00,71.8,70.0,30.12,South,180,0.0,1.0,94,0.00,,,0.00,WUHU216DAVISVP2,2013-09-10 12:15:00,
2013-09-10 08:20:00,72.0,70.1,30.12,South,180,0.0,2.0,94,0.00,,,0.00,WUHU216DAVISVP2,2013-09-10 12:20:00,
2013-09-10 08:25:00,72.2,70.0,30.12,South,180,0.0,2.0,93,0.00,,,0.00,WUHU216DAVISVP2,2013-09-10 12:25:00,
2013-09-10 08:30:00,72.4,70.2,30.12,South,180,0.0,2.0,93,0.00,,,0.00,WUHU216DAVISVP2,2013-09-10 12:30:00,
2013-09-10 08:35:00,72.5,70.3,30.12,South,180,0.0,2.0,93,0.00,,,0.00,WUHU216DAVISVP2,2013-09-10 12:35:00,
2013-09-10 08:40:00,72.8,70.3,30.12,South,180,0.0,2.0,92,0.00,,,0.00,WUHU216DAVISVP2,2013-09-10 12:40:00,
2013-09-10 08:45:00,72.9,70.4,30.12,South,180,0.0,2.0,92,0.00,,,0.00,WUHU216DAVISVP2,2013-09-10 12:45:00,
2013-09-10 08:50:00,73.1,70.3,30.12,SSW,211,1.0,3.0,91,0.00,,,0.00,WUHU216DAVISVP2,2013-09-10 12:50:00,
2013-09-10 08:55:00,73.3,70.5,30.12,SW,217,0.0,3.0,91,0.00,,,0.00,WUHU216DAVISVP2,2013-09-10 12:55:00,
2013-09-10 09:00:00,73.5,70.7,30.12,SSW,193,2.0,3.0,91,0.00,,,0.00,WUHU216DAVISVP2,2013-09-10 13:00:00,
2013-09-10 09:05:00,73.7,70.9,30.12,SSW,193,0.0,3.0,91,0.00,,,0.00,WUHU216DAVISVP2,2013-09-10 13:05:00,
2013-09-10 09:10:00,74.1,71.0,30.12,SSW,193,0.0,3.0,90,0.00,,,0.00,WUHU216DAVISVP2,2013-09-10 13:10:00,
2013-09-10 09:15:00,74.4,71.3,30.12,SW,225,0.0,3.0,90,0.00,,,0.00,WUHU216DAVISVP2,2013-09-10 13:15:00,
2013-09-10 09:20:00,74.8,71.3,30.12,SW,225,0.0,2.0,89,0.00,,,0.00,WUHU216DAVISVP2,2013-09-10 13:20:00,
2013-09-10 09:25:00,75.1,71.3,30.12,SW,232,3.0,4.0,88,0.00,,,0.00,WUHU216DAVISVP2,2013-09-10 13:25:00,
2013-09-10 09:30:00,75.2,71.4,30.13,SW,220,0.0,6.0,88,0.00,,,0.00,WUHU216DAVISVP2,2013-09-10 13:30:00,
2013-09-10 09:35:00,75.6,71.8,30.13,SSW,207,1.0,6.0,88,0.00,,,0.00,WUHU216DAVISVP2,2013-09-10 13:35:00,
2013-09-10 09:40:00,76.1,72.0,30.13,SW,222,0.0,6.0,87,0.00,,,0.00,WUHU216DAVISVP2,2013-09-10 13:40:00,
2013-09-10 09:45:00,76.7,72.2,30.13,SW,222,0.0,4.0,86,0.00,,,0.00,WUHU216DAVISVP2,2013-09-10 13:45:00,
2013-09-10 09:50:00,77.3,72.4,30.13,SW,221,1.0,3.0,85,0.00,,,0.00,WUHU216DAVISVP2,2013-09-10 13:50:00,
2013-09-10 09:55:00,77.8,72.3,30.14,SW,220,1.0,3.0,83,0.00,,,0.00,WUHU216DAVISVP2,2013-09-10 13:55:00,
2013-09-10 10:00:00,78.4,72.8,30.14,NNW,337,0.0,3.0,83,0.00,,,0.00,WUHU216DAVISVP2,2013-09-10 14:00:00,
2013-09-10 10:05:00,78.9,72.7,30.14,SW,217,0.0,3.0,81,0.00,,,0.00,WUHU216DAVISVP2,2013-09-10 14:05:00,
2013-09-10 10:10:00,79.3,73.1,30.14,SW,218,0.0,3.0,81,0.00,,,0.00,WUHU216DAVISVP2,2013-09-10 14:10:00,
2013-09-10 10:15:00,79.2,72.6,30.14,SW,227,2.0,3.0,80,0.00,,,0.00,WUHU216DAVISVP2,2013-09-10 14:15:00,
2013-09-10 10:20:00,79.1,72.9,30.14,SW,214,1.0,3.0,81,0.00,,,0.00,WUHU216DAVISVP2,2013-09-10 14:20:00,
2013-09-10 10:25:00,79.3,73.1,30.15,SSW,206,0.0,3.0,81,0.00,,,0.00,WUHU216DAVISVP2,2013-09-10 14:25:00,
2013-09-10 10:30:00,79.7,72.7,30.15,SW,214,1.0,3.0,79,0.00,,,0.00,WUHU216DAVISVP2,2013-09-10 14:30:00,
2013-09-10 10:35:00,80.0,73.0,30.14,SW,220,2.0,3.0,79,0.00,,,0.00,WUHU216DAVISVP2,2013-09-10 14:35:00,
2013-09-10 10:40:00,80.3,73.3,30.14,SW,220,0.0,3.0,79,0.00,,,0.00,WUHU216DAVISVP2,2013-09-10 14:40:00,
2013-09-10 10:45:00,80.8,73.4,30.14,SSE,157,0.0,3.0,78,0.00,,,0.00,WUHU216DAVISVP2,2013-09-10 14:45:00,
2013-09-10 10:50:00,81.5,73.8,30.14,SSE,157,0.0,3.0,77,0.00,,,0.00,WUHU216DAVISVP2,2013-09-10 14:50:00,
2013-09-10 10:55:00,82.4,74.2,30.14,SSW,195,1.0,3.0,76,0.00,,,0.00,WUHU216DAVISVP2,2013-09-10 14:55:00,
2013-09-10 11:00:00,83.0,74.1,30.14,SSE,168,0.0,4.0,74,0.00,,,0.00,WUHU216DAVISVP2,2013-09-10 15:00:00,
2013-09-10 11:05:00,83.2,74.3,30.14,West,269,0.0,4.0,74,0.00,,,0.00,WUHU216DAVISVP2,2013-09-10 15:05:00,
2013-09-10 11:10:00,83.8,74.4,30.14,WSW,258,0.0,4.0,73,0.00,,,0.00,WUHU216DAVISVP2,2013-09-10 15:10:00,
2013-09-10 11:15:00,84.0,74.2,30.14,SSW,202,2.0,4.0,72,0.00,,,0.00,WUHU216DAVISVP2,2013-09-10 15:15:00,
2013-09-10 11:20:00,83.7,74.7,30.13,East,86,0.0,3.0,74,0.00,,,0.00,WUHU216DAVISVP2,2013-09-10 15:20:00,
2013-09-10 11:25:00,84.1,74.7,30.13,South,182,0.0,4.0,73,0.00,,,0.00,WUHU216DAVISVP2,2013-09-10 15:25:00,
2013-09-10 11:30:00,84.8,75.0,30.13,ESE,102,0.0,4.0,72,0.00,,,0.00,WUHU216DAVISVP2,2013-09-10 15:30:00,
2013-09-10 11:35:00,84.8,75.4,30.13,ENE,57,1.0,4.0,73,0.00,,,0.00,WUHU216DAVISVP2,2013-09-10 15:35:00,
2013-09-10 11:40:00,84.3,74.9,30.12,NE,38,1.0,4.0,73,0.00,,,0.00,WUHU216DAVISVP2,2013-09-10 15:40:00,
2013-09-10 11:45:00,83.9,74.9,30.12,ENE,78,2.0,4.0,74,0.00,,,0.00,WUHU216DAVISVP2,2013-09-10 15:45:00,
2013-09-10 11:50:00,83.6,75.0,30.12,ENE,66,0.0,4.0,75,0.00,,,0.00,WUHU216DAVISVP2,2013-09-10 15:50:00,
2013-09-10 11:55:00,84.0,75.4,30.12,East,90,2.0,4.0,75,0.00,,,0.00,WUHU216DAVISVP2,2013-09-10 15:55:00,
2013-09-10 12:00:00,83.6,75.0,30.12,ENE,66,0.0,5.0,75,0.00,,,0.00,WUHU216DAVISVP2,2013-09-10 16:00:00,
2013-09-10 12:05:00,83.4,75.2,30.12,NE,56,1.0,5.0,76,0.00,,,0.00,WUHU216DAVISVP2,2013-09-10 16:05:00,
2013-09-10 12:10:00,83.0,75.6,30.11,NE,49,1.0,5.0,78,0.00,,,0.00,WUHU216DAVISVP2,2013-09-10 16:10:00,
2013-09-10 12:15:00,83.0,75.2,30.11,NE,46,2.0,6.0,77,0.00,,,0.00,WUHU216DAVISVP2,2013-09-10 16:15:00,
2013-09-10 12:20:00,82.8,75.4,30.11,NE,42,0.0,6.0,78,0.00,,,0.00,WUHU216DAVISVP2,2013-09-10 16:20:00,
2013-09-10 12:25:00,83.4,75.6,30.11,ENE,66,2.0,6.0,77,0.00,,,0.00,WUHU216DAVISVP2,2013-09-10 16:25:00,
2013-09-10 12:30:00,83.3,75.5,30.11,NE,39,2.0,6.0,77,0.00,,,0.00,WUHU216DAVISVP2,2013-09-10 16:30:00,
2013-09-10 12:35:00,83.3,75.5,30.11,ENE,62,3.0,4.0,77,0.00,,,0.00,WUHU216DAVISVP2,2013-09-10 16:35:00,
2013-09-10 12:40:00,83.0,75.2,30.11,East,100,2.0,7.0,77,0.00,,,0.00,WUHU216DAVISVP2,2013-09-10 16:40:00,
2013-09-10 12:45:00,83.0,75.6,30.11,East,81,2.0,7.0,78,0.00,,,0.00,WUHU216DAVISVP2,2013-09-10 16:45:00,
2013-09-10 12:51:00,83.5,75.7,30.11,NNE,23,1.0,7.0,77,0.00,,,0.00,WUHU216DAVISVP2,2013-09-10 16:51:00,
2013-09-10 12:56:00,83.9,75.7,30.11,ESE,106,0.0,7.0,76,0.00,,,0.00,WUHU216DAVISVP2,2013-09-10 16:56:00,
2013-09-10 13:01:00,84.1,75.9,30.10,NE,41,2.0,6.0,76,0.00,,,0.00,WUHU216DAVISVP2,2013-09-10 17:01:00,
2013-09-10 13:06:00,84.2,76.0,30.10,East,81,1.0,6.0,76,0.00,,,0.00,WUHU216DAVISVP2,2013-09-10 17:06:00,
2013-09-10 13:11:00,84.5,76.3,30.10,SE,133,0.0,6.0,76,0.00,,,0.00,WUHU216DAVISVP2,2013-09-10 17:11:00,
2013-09-10 13:16:00,85.2,76.6,30.10,SE,135,0.0,6.0,75,0.00,,,0.00,WUHU216DAVISVP2,2013-09-10 17:16:00,
2013-09-10 13:21:00,86.1,76.3,30.10,SSE,152,1.0,4.0,72,0.00,,,0.00,WUHU216DAVISVP2,2013-09-10 17:21:00,
2013-09-10 13:26:00,86.6,76.7,30.10,NE,49,1.0,4.0,72,0.00,,,0.00,WUHU216DAVISVP2,2013-09-10 17:26:00,
2013-09-10 13:31:00,87.0,76.7,30.10,SE,135,1.0,4.0,71,0.00,,,0.00,WUHU216DAVISVP2,2013-09-10 17:31:00,
2013-09-10 13:36:00,87.2,76.5,30.10,SSE,164,0.0,4.0,70,0.00,,,0.00,WUHU216DAVISVP2,2013-09-10 17:36:00,
2013-09-10 13:41:00,87.2,76.5,30.09,ESE,109,1.0,3.0,70,0.00,,,0.00,WUHU216DAVISVP2,2013-09-10 17:41:00,
2013-09-10 13:46:00,87.6,76.9,30.09,SSW,195,2.0,3.0,70,0.00,,,0.00,WUHU216DAVISVP2,2013-09-10 17:46:00,
2013-09-10 13:51:00,87.6,76.9,30.09,ENE,59,1.0,3.0,70,0.00,,,0.00,WUHU216DAVISVP2,2013-09-10 17:51:00,
2013-09-10 13:56:00,87.8,77.1,30.09,East,101,1.0,5.0,70,0.00,,,0.00,WUHU216DAVISVP2,2013-09-10 17:56:00,
2013-09-10 14:01:00,88.0,77.3,30.08,East,85,1.0,5.0,70,0.00,,,0.00,WUHU216DAVISVP2,2013-09-10 18:01:00,
2013-09-10 14:06:00,88.2,77.0,30.08,SSE,155,3.0,5.0,69,0.00,,,0.00,WUHU216DAVISVP2,2013-09-10 18:06:00,
2013-09-10 14:11:00,87.5,76.3,30.08,SSW,198,2.0,5.0,69,0.00,,,0.00,WUHU216DAVISVP2,2013-09-10 18:11:00,
2013-09-10 14:16:00,87.3,76.6,30.08,East,89,0.0,5.0,70,0.00,,,0.00,WUHU216DAVISVP2,2013-09-10 18:16:00,
2013-09-10 14:21:00,88.1,77.3,30.08,SW,222,1.0,5.0,70,0.00,,,0.00,WUHU216DAVISVP2,2013-09-10 18:21:00,
2013-09-10 14:26:00,88.0,76.8,30.08,South,191,0.0,5.0,69,0.00,,,0.00,WUHU216DAVISVP2,2013-09-10 18:26:00,
2013-09-10 14:31:00,88.2,77.0,30.08,SSE,154,3.0,5.0,69,0.00,,,0.00,WUHU216DAVISVP2,2013-09-10 18:31:00,
2013-09-10 14:36:00,88.1,76.9,30.07,SE,129,1.0,5.0,69,0.00,,,0.00,WUHU216DAVISVP2,2013-09-10 18:36:00,
2013-09-10 14:41:00,88.5,77.3,30.08,ESE,112,0.0,5.0,69,0.00,,,0.00,WUHU216DAVISVP2,2013-09-10 18:41:00,
2013-09-10 14:46:00,88.8,77.2,30.08,ENE,71,2.0,5.0,68,0.00,,,0.00,WUHU216DAVISVP2,2013-09-10 18:46:00,
2013-09-10 14:51:00,89.1,77.0,30.07,SSE,150,0.0,5.0,67,0.00,,,0.00,WUHU216DAVISVP2,2013-09-10 18:51:00,
2013-09-10 14:56:00,88.9,77.3,30.07,ENE,66,0.0,4.0,68,0.00,,,0.00,WUHU216DAVISVP2,2013-09-10 18:56:00,
2013-09-10 15:01:00,88.7,77.1,30.07,ENE,76,1.0,4.0,68,0.00,,,0.00,WUHU216DAVISVP2,2013-09-10 19:01:00,
2013-09-10 15:06:00,88.3,77.1,30.07,SSE,148,1.0,4.0,69,0.00,,,0.00,WUHU216DAVISVP2,2013-09-10 19:06:00,
2013-09-10 15:11:00,87.9,76.7,30.07,SSE,160,2.0,4.0,69,0.00,,,0.00,WUHU216DAVISVP2,2013-09-10 19:11:00,
2013-09-10 15:16:00,88.1,76.9,30.07,East,96,2.0,4.0,69,0.00,,,0.00,WUHU216DAVISVP2,2013-09-10 19:16:00,
2013-09-10 15:21:00,88.0,76.8,30.07,SSE,147,1.0,4.0,69,0.00,,,0.00,WUHU216DAVISVP2,2013-09-10 19:21:00,
2013-09-10 15:26:00,87.9,76.7,30.06,SSE,154,0.0,4.0,69,0.00,,,0.00,WUHU216DAVISVP2,2013-09-10 19:26:00,
2013-09-10 15:31:00,88.3,77.1,30.06,SSE,155,0.0,4.0,69,0.00,,,0.00,WUHU216DAVISVP2,2013-09-10 19:31:00,
2013-09-10 15:36:00,88.9,77.3,30.06,SSE,147,0.0,4.0,68,0.00,,,0.00,WUHU216DAVISVP2,2013-09-10 19:36:00,
2013-09-10 15:41:00,89.4,77.3,30.06,ENE,76,0.0,3.0,67,0.00,,,0.00,WUHU216DAVISVP2,2013-09-10 19:41:00,
2013-09-10 15:46:00,89.4,76.8,30.06,SSE,162,2.0,4.0,66,0.00,,,0.00,WUHU216DAVISVP2,2013-09-10 19:46:00,
2013-09-10 15:51:00,88.8,77.2,30.06,SSE,162,2.0,4.0,68,0.00,,,0.00,WUHU216DAVISVP2,2013-09-10 19:51:00,
2013-09-10 15:56:00,88.3,76.7,30.06,SSE,160,0.0,5.0,68,0.00,,,0.00,WUHU216DAVISVP2,2013-09-10 19:56:00,
2013-09-10 16:01:00,87.9,76.7,30.06,SSE,160,2.0,6.0,69,0.00,,,0.00,WUHU216DAVISVP2,2013-09-10 20:01:00,
2013-09-10 16:06:00,87.8,77.1,30.06,SSE,157,2.0,6.0,70,0.00,,,0.00,WUHU216DAVISVP2,2013-09-10 20:06:00,
2013-09-10 16:11:00,87.6,76.9,30.06,SSE,157,0.0,6.0,70,0.00,,,0.00,WUHU216DAVISVP2,2013-09-10 20:11:00,
2013-09-10 16:16:00,87.8,77.1,30.05,South,183,2.0,6.0,70,0.00,,,0.00,WUHU216DAVISVP2,2013-09-10 20:16:00,
2013-09-10 16:21:00,87.6,77.3,30.05,SSE,158,0.0,5.0,71,0.00,,,0.00,WUHU216DAVISVP2,2013-09-10 20:21:00,
2013-09-10 16:26:00,87.6,76.9,30.05,SSE,165,3.0,5.0,70,0.00,,,0.00,WUHU216DAVISVP2,2013-09-10 20:26:00,
2013-09-10 16:31:00,87.5,76.8,30.05,SSE,148,0.0,5.0,70,0.00,,,0.00,WUHU216DAVISVP2,2013-09-10 20:31:00,
2013-09-10 16:36:00,87.7,77.4,30.05,SSW,201,0.0,4.0,71,0.00,,,0.00,WUHU216DAVISVP2,2013-09-10 20:36:00,
2013-09-10 16:41:00,87.8,77.1,30.05,SSE,153,1.0,4.0,70,0.00,,,0.00,WUHU216DAVISVP2,2013-09-10 20:41:00,
2013-09-10 16:46:00,87.9,77.2,30.05,SSE,156,1.0,4.0,70,0.00,,,0.00,WUHU216DAVISVP2,2013-09-10 20:46:00,
2013-09-10 16:51:00,87.9,76.7,30.05,SSE,150,2.0,4.0,69,0.00,,,0.00,WUHU216DAVISVP2,2013-09-10 20:51:00,
2013-09-10 16:56:00,87.8,76.6,30.05,SSE,150,0.0,4.0,69,0.00,,,0.00,WUHU216DAVISVP2,2013-09-10 20:56:00,
2013-09-10 17:01:00,87.7,76.1,30.05,SSE,154,1.0,5.0,68,0.00,,,0.00,WUHU216DAVISVP2,2013-09-10 21:01:00,
2013-09-10 17:06:00,87.6,76.4,30.05,South,172,0.0,5.0,69,0.00,,,0.00,WUHU216DAVISVP2,2013-09-10 21:06:00,
2013-09-10 17:11:00,87.6,76.4,30.05,South,170,1.0,5.0,69,0.00,,,0.00,WUHU216DAVISVP2,2013-09-10 21:11:00,
2013-09-10 17:16:00,87.6,76.4,30.05,South,171,1.0,5.0,69,0.00,,,0.00,WUHU216DAVISVP2,2013-09-10 21:16:00,
2013-09-10 17:21:00,87.6,76.4,30.05,SW,220,1.0,5.0,69,0.00,,,0.00,WUHU216DAVISVP2,2013-09-10 21:21:00,
2013-09-10 17:26:00,87.6,76.4,30.05,SSW,198,1.0,5.0,69,0.00,,,0.00,WUHU216DAVISVP2,2013-09-10 21:26:00,
2013-09-10 17:31:00,87.4,76.2,30.05,SE,140,1.0,5.0,69,0.00,,,0.00,WUHU216DAVISVP2,2013-09-10 21:31:00,
2013-09-10 17:36:00,87.3,76.2,30.05,SE,140,1.0,5.0,69,0.00,,,0.00,WUHU216DAVISVP2,2013-09-10 21:36:00,
2013-09-10 17:41:00,87.1,76.4,30.05,SE,141,1.0,3.0,70,0.00,,,0.00,WUHU216DAVISVP2,2013-09-10 21:41:00,
2013-09-10 17:46:00,86.9,76.2,30.05,SE,142,0.0,4.0,70,0.00,,,0.00,WUHU216DAVISVP2,2013-09-10 21:46:00,
2013-09-10 17:51:00,86.7,76.4,30.05,SE,144,1.0,4.0,71,0.00,,,0.00,WUHU216DAVISVP2,2013-09-10 21:51:00,
2013-09-10 17:56:00,86.5,76.2,30.05,SE,145,0.0,4.0,71,0.00,,,0.00,WUHU216DAVISVP2,2013-09-10 21:56:00,
2013-09-10 18:01:00,86.4,76.5,30.05,SE,144,1.0,4.0,72,0.00,,,0.00,WUHU216DAVISVP2,2013-09-10 22:01:00,
2013-09-10 18:06:00,86.3,76.0,30.05,SW,220,0.0,3.0,71,0.00,,,0.00,WUHU216DAVISVP2,2013-09-10 22:06:00,
2013-09-10 18:11:00,86.2,76.3,30.05,South,187,3.0,3.0,72,0.00,,,0.00,WUHU216DAVISVP2,2013-09-10 22:11:00,
2013-09-10 18:16:00,86.0,76.2,30.05,South,175,0.0,4.0,72,0.00,,,0.00,WUHU216DAVISVP2,2013-09-10 22:16:00,
2013-09-10 18:21:00,85.9,76.5,30.05,South,175,0.0,4.0,73,0.00,,,0.00,WUHU216DAVISVP2,2013-09-10 22:21:00,
2013-09-10 18:26:00,85.8,76.4,30.05,South,175,0.0,4.0,73,0.00,,,0.00,WUHU216DAVISVP2,2013-09-10 22:26:00,
2013-09-10 18:31:00,85.7,76.3,30.05,South,175,1.0,4.0,73,0.00,,,0.00,WUHU216DAVISVP2,2013-09-10 22:31:00,
2013-09-10 18:36:00,85.5,76.5,30.05,SE,145,1.0,2.0,74,0.00,,,0.00,WUHU216DAVISVP2,2013-09-10 22:36:00,
2013-09-10 18:41:00,85.3,76.3,30.05,SE,145,0.0,2.0,74,0.00,,,0.00,WUHU216DAVISVP2,2013-09-10 22:41:00,
2013-09-10 18:46:00,85.2,76.2,30.05,SE,144,0.0,2.0,74,0.00,,,0.00,WUHU216DAVISVP2,2013-09-10 22:46:00,
2013-09-10 18:51:00,85.0,76.4,30.05,SE,145,0.0,2.0,75,0.00,,,0.00,WUHU216DAVISVP2,2013-09-10 22:51:00,
2013-09-10 18:56:00,84.8,76.2,30.05,SE,145,0.0,1.0,75,0.00,,,0.00,WUHU216DAVISVP2,2013-09-10 22:56:00,
2013-09-10 19:01:00,84.6,76.4,30.05,SE,145,0.0,1.0,76,0.00,,,0.00,WUHU216DAVISVP2,2013-09-10 23:01:00,
2013-09-10 19:06:00,84.3,76.1,30.05,SE,144,0.0,1.0,76,0.00,,,0.00,WUHU216DAVISVP2,2013-09-10 23:06:00,
2013-09-10 19:11:00,84.0,76.2,30.06,SE,145,0.0,1.0,77,0.00,,,0.00,WUHU216DAVISVP2,2013-09-10 23:11:00,
2013-09-10 19:16:00,83.7,76.3,30.06,South,172,0.0,1.0,78,0.00,,,0.00,WUHU216DAVISVP2,2013-09-10 23:16:00,
2013-09-10 19:21:00,83.4,76.0,30.06,South,172,0.0,1.0,78,0.00,,,0.00,WUHU216DAVISVP2,2013-09-10 23:21:00,
2013-09-10 19:26:00,83.2,76.1,30.06,South,172,0.0,1.0,79,0.00,,,0.00,WUHU216DAVISVP2,2013-09-10 23:26:00,
2013-09-10 19:31:00,82.9,75.9,30.06,South,172,0.0,1.0,79,0.00,,,0.00,WUHU216DAVISVP2,2013-09-10 23:31:00,
2013-09-10 19:36:00,82.6,75.9,30.06,South,172,0.0,1.0,80,0.00,,,0.00,WUHU216DAVISVP2,2013-09-10 23:36:00,
2013-09-10 19:41:00,82.3,76.0,30.06,South,172,0.0,1.0,81,0.00,,,0.00,WUHU216DAVISVP2,2013-09-10 23:41:00,
2013-09-10 19:46:00,82.0,75.7,30.06,South,172,0.0,1.0,81,0.00,,,0.00,WUHU216DAVISVP2,2013-09-10 23:46:00,
2013-09-10 19:51:00,81.8,75.9,30.06,South,172,0.0,1.0,82,0.00,,,0.00,WUHU216DAVISVP2,2013-09-10 23:51:00,
2013-09-10 19:56:00,81.6,76.0,30.06,South,172,0.0,1.0,83,0.00,,,0.00,WUHU216DAVISVP2,2013-09-10 23:56:00,
2013-09-10 20:01:00,81.3,75.7,30.06,South,172,0.0,1.0,83,0.00,,,0.00,WUHU216DAVISVP2,2013-09-11 00:01:00,
2013-09-10 20:06:00,81.1,75.9,30.07,South,172,0.0,0.0,84,0.00,,,0.00,WUHU216DAVISVP2,2013-09-11 00:06:00,
2013-09-10 20:11:00,80.9,75.7,30.07,South,172,0.0,0.0,84,0.00,,,0.00,WUHU216DAVISVP2,2013-09-11 00:11:00,
2013-09-10 20:16:00,80.8,75.9,30.07,South,172,0.0,1.0,85,0.00,,,0.00,WUHU216DAVISVP2,2013-09-11 00:16:00,
2013-09-10 20:21:00,80.6,75.7,30.07,South,172,0.0,1.0,85,0.00,,,0.00,WUHU216DAVISVP2,2013-09-11 00:21:00,
2013-09-10 20:26:00,80.5,76.0,30.07,South,172,0.0,1.0,86,0.00,,,0.00,WUHU216DAVISVP2,2013-09-11 00:26:00,
2013-09-10 20:31:00,80.3,75.8,30.07,South,172,0.0,1.0,86,0.00,,,0.00,WUHU216DAVISVP2,2013-09-11 00:31:00,
2013-09-10 20:36:00,80.2,75.7,30.07,South,172,0.0,1.0,86,0.00,,,0.00,WUHU216DAVISVP2,2013-09-11 00:36:00,
2013-09-10 20:41:00,80.0,75.8,30.08,South,172,0.0,0.0,87,0.00,,,0.00,WUHU216DAVISVP2,2013-09-11 00:41:00,
2013-09-10 20:46:00,79.9,75.7,30.08,South,172,0.0,0.0,87,0.00,,,0.00,WUHU216DAVISVP2,2013-09-11 00:46:00,
2013-09-10 20:51:00,79.8,75.9,30.08,South,172,0.0,0.0,88,0.00,,,0.00,WUHU216DAVISVP2,2013-09-11 00:51:00,
2013-09-10 20:56:00,79.7,75.8,30.08,South,172,0.0,0.0,88,0.00,,,0.00,WUHU216DAVISVP2,2013-09-11 00:56:00,
2013-09-10 21:01:00,79.5,75.6,30.08,South,172,0.0,1.0,88,0.00,,,0.00,WUHU216DAVISVP2,2013-09-11 01:01:00,
2013-09-10 21:06:00,79.4,75.9,30.08,South,172,0.0,1.0,89,0.00,,,0.00,WUHU216DAVISVP2,2013-09-11 01:06:00,
2013-09-10 21:11:00,79.3,75.8,30.08,South,172,0.0,1.0,89,0.00,,,0.00,WUHU216DAVISVP2,2013-09-11 01:11:00,
2013-09-10 21:16:00,79.2,76.0,30.08,South,172,0.0,1.0,90,0.00,,,0.00,WUHU216DAVISVP2,2013-09-11 01:16:00,
2013-09-10 21:21:00,79.0,75.8,30.09,South,172,0.0,1.0,90,0.00,,,0.00,WUHU216DAVISVP2,2013-09-11 01:21:00,
2013-09-10 21:26:00,78.9,75.7,30.09,South,172,0.0,1.0,90,0.00,,,0.00,WUHU216DAVISVP2,2013-09-11 01:26:00,
2013-09-10 21:31:00,78.9,75.7,30.09,South,172,0.0,1.0,90,0.00,,,0.00,WUHU216DAVISVP2,2013-09-11 01:31:00,
2013-09-10 21:36:00,78.8,75.6,30.09,South,172,0.0,1.0,90,0.00,,,0.00,WUHU216DAVISVP2,2013-09-11 01:36:00,
2013-09-10 21:41:00,78.7,75.8,30.09,South,172,0.0,1.0,91,0.00,,,0.00,WUHU216DAVISVP2,2013-09-11 01:41:00,
2013-09-10 21:46:00,78.5,75.6,30.10,South,172,0.0,1.0,91,0.00,,,0.00,WUHU216DAVISVP2,2013-09-11 01:46:00,
2013-09-10 21:51:00,78.5,75.6,30.10,South,172,0.0,1.0,91,0.00,,,0.00,WUHU216DAVISVP2,2013-09-11 01:51:00,
2013-09-10 21:56:00,78.4,75.5,30.10,South,172,0.0,1.0,91,0.00,,,0.00,WUHU216DAVISVP2,2013-09-11 01:56:00,
2013-09-10 22:01:00,78.3,75.4,30.10,South,172,0.0,1.0,91,0.00,,,0.00,WUHU216DAVISVP2,2013-09-11 02:01:00,
2013-09-10 22:06:00,78.2,75.7,30.10,South,172,0.0,0.0,92,0.00,,,0.00,WUHU216DAVISVP2,2013-09-11 02:06:00,
2013-09-10 22:11:00,78.1,75.6,30.10,South,172,0.0,1.0,92,0.00,,,0.00,WUHU216DAVISVP2,2013-09-11 02:11:00,
2013-09-10 22:16:00,78.0,75.5,30.10,South,172,0.0,1.0,92,0.00,,,0.00,WUHU216DAVISVP2,2013-09-11 02:16:00,
2013-09-10 22:21:00,78.0,75.5,30.11,South,172,0.0,1.0,92,0.00,,,0.00,WUHU216DAVISVP2,2013-09-11 02:21:00,
2013-09-10 22:26:00,78.0,75.5,30.11,South,172,0.0,1.0,92,0.00,,,0.00,WUHU216DAVISVP2,2013-09-11 02:26:00,
2013-09-10 22:31:00,77.9,75.4,30.11,South,172,0.0,0.0,92,0.00,,,0.00,WUHU216DAVISVP2,2013-09-11 02:31:00,
2013-09-10 22:36:00,77.8,75.3,30.11,South,172,0.0,0.0,92,0.00,,,0.00,WUHU216DAVISVP2,2013-09-11 02:36:00,
2013-09-10 22:41:00,77.7,75.2,30.11,South,172,0.0,0.0,92,0.00,,,0.00,WUHU216DAVISVP2,2013-09-11 02:41:00,
2013-09-10 22:46:00,77.6,75.1,30.11,South,172,0.0,0.0,92,0.00,,,0.00,WUHU216DAVISVP2,2013-09-11 02:46:00,
2013-09-10 22:51:00,77.5,75.0,30.11,South,172,0.0,0.0,92,0.00,,,0.00,WUHU216DAVISVP2,2013-09-11 02:51:00,
2013-09-10 22:56:00,77.5,75.0,30.11,South,172,0.0,0.0,92,0.00,,,0.00,WUHU216DAVISVP2,2013-09-11 02:56:00,
2013-09-10 23:01:00,77.4,74.9,30.11,South,172,0.0,0.0,92,0.00,,,0.00,WUHU216DAVISVP2,2013-09-11 03:01:00,
2013-09-10 23:06:00,77.3,74.8,30.11,South,172,0.0,0.0,92,0.00,,,0.00,WUHU216DAVISVP2,2013-09-11 03:06:00,
2013-09-10 23:11:00,77.3,74.8,30.11,South,172,0.0,0.0,92,0.00,,,0.00,WUHU216DAVISVP2,2013-09-11 03:11:00,
2013-09-10 23:16:00,77.2,74.7,30.11,South,172,0.0,0.0,92,0.00,,,0.00,WUHU216DAVISVP2,2013-09-11 03:16:00,
2013-09-10 23:21:00,77.1,74.6,30.11,South,172,0.0,0.0,92,0.00,,,0.00,WUHU216DAVISVP2,2013-09-11 03:21:00,
2013-09-10 23:26:00,77.0,74.5,30.11,South,172,0.0,0.0,92,0.00,,,0.00,WUHU216DAVISVP2,2013-09-11 03:26:00,
2013-09-10 23:31:00,77.0,74.5,30.11,South,172,0.0,0.0,92,0.00,,,0.00,WUHU216DAVISVP2,2013-09-11 03:31:00,
2013-09-10 23:36:00,76.9,74.4,30.11,South,172,0.0,0.0,92,0.00,,,0.00,WUHU216DAVISVP2,2013-09-11 03:36:00,
2013-09-10 23:41:00,76.8,74.3,30.11,South,172,0.0,0.0,92,0.00,,,0.00,WUHU216DAVISVP2,2013-09-11 03:41:00,
2013-09-10 23:46:00,76.7,74.5,30.11,South,172,0.0,0.0,93,0.00,,,0.00,WUHU216DAVISVP2,2013-09-11 03:46:00,
2013-09-10 23:51:00,76.6,74.4,30.11,South,172,0.0,0.0,93,0.00,,,0.00,WUHU216DAVISVP2,2013-09-11 03:51:00,
2013-09-10 23:56:00,76.5,74.3,30.11,South,172,0.0,0.0,93,0.00,,,0.00,WUHU216DAVISVP2,2013-09-11 03:56:00,